Time,TemperatureF,DewpointF,PressureIn,WindDirection,WindDirectionDegrees,WindSpeedMPH,WindSpeedGustMPH,Humidity,HourlyPrecipIn,Conditions,Clouds,dailyrainin,SoftwareType,DateUTC
2013-02-13 00:00:00,68.2,65.8,30.01,SSW,208,0.0,0.0,92,0.00,,,0.00,meteohub,2013-02-13 05:00:00,
2013-02-13 00:01:00,68.2,65.8,30.01,SSW,208,0.0,0.0,92,0.00,,,0.00,meteohub,2013-02-13 05:01:00,
2013-02-13 00:06:00,68.0,65.8,30.02,SSW,208,0.0,0.0,93,0.00,,,0.00,meteohub,2013-02-13 05:06:00,
2013-02-13 00:11:00,67.8,65.7,30.01,SSW,208,0.0,0.0,93,0.00,,,0.00,meteohub,2013-02-13 05:11:00,
2013-02-13 00:16:00,67.6,65.5,30.01,SSW,208,0.0,0.0,93,0.00,,,0.00,meteohub,2013-02-13 05:16:00,
2013-02-13 00:21:00,67.5,65.3,30.01,SSW,208,0.0,0.0,93,0.00,,,0.00,meteohub,2013-02-13 05:21:00,
2013-02-13 00:26:00,67.3,65.1,30.01,SSW,208,0.0,0.0,93,0.00,,,0.00,meteohub,2013-02-13 05:26:00,
2013-02-13 00:31:00,67.1,64.9,30.01,SSW,208,0.0,0.0,93,0.00,,,0.00,meteohub,2013-02-13 05:31:00,
2013-02-13 00:36:00,66.9,65.1,30.01,SSW,208,0.0,0.0,94,0.00,,,0.00,meteohub,2013-02-13 05:36:00,
2013-02-13 00:41:00,66.7,64.9,30.01,SSW,208,0.0,0.0,94,0.00,,,0.00,meteohub,2013-02-13 05:41:00,
2013-02-13 00:46:00,66.7,64.9,30.01,SSW,208,0.0,0.0,94,0.00,,,0.00,meteohub,2013-02-13 05:46:00,
2013-02-13 00:51:00,66.6,64.8,30.01,SSW,208,0.0,0.0,94,0.00,,,0.00,meteohub,2013-02-13 05:51:00,
2013-02-13 00:56:00,66.4,64.6,30.01,SSW,208,0.0,0.0,94,0.00,,,0.00,meteohub,2013-02-13 05:56:00,
2013-02-13 01:01:00,66.4,64.9,30.01,SSW,208,0.0,0.0,95,0.00,,,0.00,meteohub,2013-02-13 06:01:00,
2013-02-13 01:06:00,66.4,64.9,30.00,SSW,208,0.0,0.0,95,0.00,,,0.00,meteohub,2013-02-13 06:06:00,
2013-02-13 01:11:00,66.4,64.9,30.01,SSW,208,0.0,0.0,95,0.00,,,0.00,meteohub,2013-02-13 06:11:00,
2013-02-13 01:16:00,66.4,64.9,30.00,SSW,208,0.0,0.0,95,0.00,,,0.00,meteohub,2013-02-13 06:16:00,
2013-02-13 01:21:00,66.2,64.8,30.00,SSW,208,0.0,0.0,95,0.00,,,0.00,meteohub,2013-02-13 06:21:00,
2013-02-13 01:26:00,66.0,64.6,30.00,SSW,208,0.0,0.0,95,0.00,,,0.00,meteohub,2013-02-13 06:26:00,
2013-02-13 01:31:00,66.0,64.8,30.00,SSW,208,0.0,0.0,96,0.00,,,0.00,meteohub,2013-02-13 06:31:00,
2013-02-13 01:36:00,66.2,64.9,30.00,SSW,208,0.0,0.0,96,0.00,,,0.00,meteohub,2013-02-13 06:36:00,
2013-02-13 01:41:00,66.2,64.9,30.00,SSW,208,0.0,0.0,96,0.00,,,0.00,meteohub,2013-02-13 06:41:00,
2013-02-13 01:46:00,66.0,64.8,30.00,SSW,208,0.0,0.0,96,0.00,,,0.00,meteohub,2013-02-13 06:46:00,
2013-02-13 01:51:00,66.0,64.8,29.99,SSW,208,0.0,0.0,96,0.00,,,0.00,meteohub,2013-02-13 06:51:00,
2013-02-13 01:56:00,66.0,64.8,30.00,SSW,208,0.0,0.0,96,0.00,,,0.00,meteohub,2013-02-13 06:56:00,
2013-02-13 02:01:00,66.0,64.8,29.99,SSW,208,0.0,0.0,96,0.00,,,0.00,meteohub,2013-02-13 07:01:00,
2013-02-13 02:06:00,65.8,64.6,29.99,SSW,208,0.0,0.0,96,0.00,,,0.00,meteohub,2013-02-13 07:06:00,
2013-02-13 02:11:00,65.8,64.6,29.99,SSW,208,0.0,0.0,96,0.00,,,0.00,meteohub,2013-02-13 07:11:00,
2013-02-13 02:16:00,65.8,64.6,29.99,SSW,208,0.0,0.0,96,0.00,,,0.00,meteohub,2013-02-13 07:16:00,
2013-02-13 02:21:00,65.8,64.9,29.99,SSW,208,0.0,0.0,97,0.00,,,0.00,meteohub,2013-02-13 07:21:00,
2013-02-13 02:27:00,66.0,65.1,29.99,SSW,208,0.0,0.0,97,0.00,,,0.00,meteohub,2013-02-13 07:27:00,
2013-02-13 02:32:00,66.4,65.5,29.98,SSW,208,0.0,0.0,97,0.00,,,0.00,meteohub,2013-02-13 07:32:00,
2013-02-13 02:37:00,66.7,66.2,29.98,SSW,208,0.0,0.0,98,0.00,,,0.00,meteohub,2013-02-13 07:37:00,
2013-02-13 02:42:00,67.1,66.6,29.98,SSW,208,0.0,1.0,98,0.00,,,0.00,meteohub,2013-02-13 07:42:00,
2013-02-13 02:47:00,67.5,66.9,29.98,SSW,209,0.0,1.0,98,0.00,,,0.00,meteohub,2013-02-13 07:47:00,
2013-02-13 02:52:00,67.8,67.3,29.98,SSW,209,0.0,1.0,98,0.00,,,0.00,meteohub,2013-02-13 07:52:00,
2013-02-13 02:57:00,68.2,67.6,29.98,SSW,199,0.0,1.0,98,0.00,,,0.00,meteohub,2013-02-13 07:57:00,
2013-02-13 03:02:00,68.2,67.3,29.98,SSW,197,0.0,2.0,97,0.00,,,0.00,meteohub,2013-02-13 08:02:00,
2013-02-13 03:07:00,68.4,67.5,29.98,SSW,196,0.0,2.0,97,0.00,,,0.00,meteohub,2013-02-13 08:07:00,
2013-02-13 03:12:00,68.4,67.5,29.98,SSW,196,0.0,2.0,97,0.00,,,0.00,meteohub,2013-02-13 08:12:00,
2013-02-13 03:17:00,68.4,67.5,29.98,SSW,196,0.0,2.0,97,0.00,,,0.00,meteohub,2013-02-13 08:17:00,
2013-02-13 03:22:00,68.4,67.5,29.98,SSW,196,0.0,0.0,97,0.00,,,0.00,meteohub,2013-02-13 08:22:00,
2013-02-13 03:27:00,68.4,67.5,29.98,SSW,196,0.0,0.0,97,0.00,,,0.00,meteohub,2013-02-13 08:27:00,
2013-02-13 03:32:00,68.4,67.5,29.98,SSW,207,0.0,1.0,97,0.00,,,0.00,meteohub,2013-02-13 08:32:00,
2013-02-13 03:37:00,68.5,67.6,29.98,SSW,207,0.0,1.0,97,0.00,,,0.00,meteohub,2013-02-13 08:37:00,
2013-02-13 03:42:00,68.7,68.2,29.98,SSW,209,0.0,2.0,98,0.00,,,0.00,meteohub,2013-02-13 08:42:00,
2013-02-13 03:47:00,69.1,68.2,29.98,SSW,209,0.0,2.0,97,0.00,,,0.00,meteohub,2013-02-13 08:47:00,
2013-02-13 03:52:00,69.1,68.5,29.98,SSW,209,0.0,2.0,98,0.00,,,0.00,meteohub,2013-02-13 08:52:00,
2013-02-13 03:57:00,69.3,68.7,29.98,SW,221,0.0,2.0,98,0.00,,,0.00,meteohub,2013-02-13 08:57:00,
2013-02-13 04:02:00,69.4,68.5,29.98,SW,219,0.0,3.0,97,0.00,,,0.00,meteohub,2013-02-13 09:02:00,
2013-02-13 04:07:00,69.4,68.5,29.98,SW,219,0.0,3.0,97,0.00,,,0.00,meteohub,2013-02-13 09:07:00,
2013-02-13 04:12:00,69.6,68.7,29.98,SW,219,0.0,3.0,97,0.00,,,0.00,meteohub,2013-02-13 09:12:00,
2013-02-13 04:17:00,70.0,69.4,29.98,SSW,211,0.0,2.0,98,0.00,,,0.00,meteohub,2013-02-13 09:17:00,
2013-02-13 04:22:00,70.0,69.4,29.98,SSW,211,0.0,3.0,98,0.00,,,0.00,meteohub,2013-02-13 09:22:00,
2013-02-13 04:27:00,70.2,69.3,29.98,SSW,211,0.0,3.0,97,0.00,,,0.00,meteohub,2013-02-13 09:27:00,
2013-02-13 04:32:00,70.3,69.4,29.98,SSW,211,0.0,3.0,97,0.00,,,0.00,meteohub,2013-02-13 09:32:00,
2013-02-13 04:37:00,70.3,69.4,29.98,SSW,211,0.0,2.0,97,0.00,,,0.00,meteohub,2013-02-13 09:37:00,
2013-02-13 04:42:00,70.5,69.6,29.98,SSW,198,0.0,3.0,97,0.00,,,0.00,meteohub,2013-02-13 09:42:00,
2013-02-13 04:47:00,70.5,69.6,29.98,SSW,200,0.0,3.0,97,0.00,,,0.00,meteohub,2013-02-13 09:47:00,
2013-02-13 04:52:00,70.5,69.6,29.98,South,186,0.0,3.0,97,0.00,,,0.00,meteohub,2013-02-13 09:52:00,
2013-02-13 04:57:00,70.5,69.6,29.98,SSW,195,0.0,4.0,97,0.00,,,0.00,meteohub,2013-02-13 09:57:00,
2013-02-13 05:02:00,70.5,69.6,29.98,SSW,195,0.0,4.0,97,0.00,,,0.00,meteohub,2013-02-13 10:02:00,
2013-02-13 05:07:00,70.5,69.3,29.98,SSW,207,0.0,4.0,96,0.00,,,0.00,meteohub,2013-02-13 10:07:00,
2013-02-13 05:12:00,70.5,69.3,29.98,SSW,207,0.0,3.0,96,0.00,,,0.00,meteohub,2013-02-13 10:12:00,
2013-02-13 05:17:00,70.5,69.3,29.98,SSW,209,0.0,3.0,96,0.00,,,0.00,meteohub,2013-02-13 10:17:00,
2013-02-13 05:22:00,70.5,69.3,29.98,SSW,200,0.0,3.0,96,0.00,,,0.00,meteohub,2013-02-13 10:22:00,
2013-02-13 05:27:00,70.5,69.3,29.98,SSW,200,0.0,2.0,96,0.00,,,0.00,meteohub,2013-02-13 10:27:00,
2013-02-13 05:32:00,70.3,69.1,29.98,SSW,200,0.0,2.0,96,0.00,,,0.00,meteohub,2013-02-13 10:32:00,
2013-02-13 05:37:00,70.3,69.1,29.98,SSW,200,0.0,0.0,96,0.00,,,0.00,meteohub,2013-02-13 10:37:00,
2013-02-13 05:42:00,70.3,69.1,29.98,SSE,163,0.0,0.0,96,0.00,,,0.00,meteohub,2013-02-13 10:42:00,
2013-02-13 05:47:00,70.3,69.1,29.98,SSE,164,0.0,2.0,96,0.00,,,0.00,meteohub,2013-02-13 10:47:00,
2013-02-13 05:52:00,70.3,69.1,29.98,SSE,164,0.0,2.0,96,0.00,,,0.00,meteohub,2013-02-13 10:52:00,
2013-02-13 05:57:00,70.3,69.1,29.98,South,191,0.0,3.0,96,0.00,,,0.00,meteohub,2013-02-13 10:57:00,
2013-02-13 06:02:00,70.3,69.1,29.98,SSE,163,0.0,3.0,96,0.00,,,0.00,meteohub,2013-02-13 11:02:00,
2013-02-13 06:07:00,70.5,69.3,29.98,South,170,0.0,4.0,96,0.00,,,0.00,meteohub,2013-02-13 11:07:00,
2013-02-13 06:12:00,70.5,69.3,29.98,South,178,0.0,4.0,96,0.00,,,0.00,meteohub,2013-02-13 11:12:00,
2013-02-13 06:17:00,70.9,69.6,29.98,SSW,196,0.0,4.0,96,0.00,,,0.00,meteohub,2013-02-13 11:17:00,
2013-02-13 06:22:00,70.9,69.6,29.99,SSW,194,2.0,4.0,96,0.00,,,0.00,meteohub,2013-02-13 11:22:00,
2013-02-13 06:27:00,71.2,69.8,29.99,SSW,193,3.0,6.0,95,0.00,,,0.00,meteohub,2013-02-13 11:27:00,
2013-02-13 06:32:00,71.2,69.8,29.98,SSW,198,0.0,6.0,95,0.00,,,0.00,meteohub,2013-02-13 11:32:00,
2013-02-13 06:37:00,71.2,69.8,29.98,SSW,202,1.0,6.0,95,0.00,,,0.00,meteohub,2013-02-13 11:37:00,
2013-02-13 06:42:00,71.4,69.6,29.98,SSW,197,1.0,7.0,94,0.00,,,0.00,meteohub,2013-02-13 11:42:00,
2013-02-13 06:47:00,71.6,69.8,29.98,South,170,2.0,7.0,94,0.00,,,0.00,meteohub,2013-02-13 11:47:00,
2013-02-13 06:52:00,71.6,69.4,29.98,SE,135,0.0,7.0,93,0.00,,,0.00,meteohub,2013-02-13 11:52:00,
2013-02-13 06:57:00,71.8,69.6,29.99,South,188,1.0,7.0,93,0.00,,,0.00,meteohub,2013-02-13 11:57:00,
2013-02-13 07:02:00,71.8,69.6,29.99,SSW,205,2.0,7.0,93,0.00,,,0.00,meteohub,2013-02-13 12:02:00,
2013-02-13 07:07:00,72.0,69.8,29.99,SSW,202,1.0,6.0,93,0.00,,,0.00,meteohub,2013-02-13 12:07:00,
2013-02-13 07:12:00,72.0,69.4,29.99,SSW,206,0.0,6.0,92,0.00,,,0.00,meteohub,2013-02-13 12:12:00,
2013-02-13 07:17:00,72.0,69.4,29.99,SSE,164,0.0,8.0,92,0.00,,,0.00,meteohub,2013-02-13 12:17:00,
2013-02-13 07:22:00,72.0,69.4,29.99,SSW,201,0.0,8.0,92,0.00,,,0.00,meteohub,2013-02-13 12:22:00,
2013-02-13 07:27:00,72.1,69.6,29.99,South,180,4.0,8.0,92,0.00,,,0.00,meteohub,2013-02-13 12:27:00,
2013-02-13 07:32:00,72.3,69.8,29.99,SSW,210,0.0,7.0,92,0.00,,,0.00,meteohub,2013-02-13 12:32:00,
2013-02-13 07:37:00,72.5,70.0,29.99,SSE,163,0.0,7.0,92,0.00,,,0.00,meteohub,2013-02-13 12:37:00,
2013-02-13 07:42:00,72.7,70.0,29.99,SSW,194,4.0,7.0,91,0.00,,,0.00,meteohub,2013-02-13 12:42:00,
2013-02-13 07:47:00,72.9,70.3,29.99,SSE,157,2.0,7.0,92,0.00,,,0.00,meteohub,2013-02-13 12:47:00,
2013-02-13 07:52:00,73.0,70.3,29.99,SW,215,4.0,7.0,91,0.00,,,0.00,meteohub,2013-02-13 12:52:00,
2013-02-13 07:57:00,73.4,70.5,29.99,SSW,194,0.0,8.0,91,0.00,,,0.00,meteohub,2013-02-13 12:57:00,
2013-02-13 08:02:00,73.6,70.5,29.99,South,178,4.0,9.0,90,0.00,,,0.00,meteohub,2013-02-13 13:02:00,
2013-02-13 08:07:00,73.9,70.5,29.99,SE,126,5.0,9.0,89,0.00,,,0.00,meteohub,2013-02-13 13:07:00,
2013-02-13 08:12:00,74.1,70.7,29.99,SE,127,2.0,9.0,89,0.00,,,0.00,meteohub,2013-02-13 13:12:00,
2013-02-13 08:17:00,74.5,70.7,29.99,SSW,196,4.0,10.0,88,0.00,,,0.00,meteohub,2013-02-13 13:17:00,
2013-02-13 08:22:00,74.8,71.1,29.99,SSE,167,4.0,10.0,88,0.00,,,0.00,meteohub,2013-02-13 13:22:00,
2013-02-13 08:27:00,75.0,70.9,29.99,South,173,4.0,11.0,87,0.00,,,0.00,meteohub,2013-02-13 13:27:00,
2013-02-13 08:32:00,75.4,70.9,29.99,South,180,4.0,11.0,86,0.00,,,0.00,meteohub,2013-02-13 13:32:00,
2013-02-13 08:37:00,75.7,71.2,30.00,SSW,212,2.0,13.0,86,0.00,,,0.00,meteohub,2013-02-13 13:37:00,
2013-02-13 08:42:00,76.3,71.8,30.00,SW,214,3.0,13.0,86,0.00,,,0.00,meteohub,2013-02-13 13:42:00,
2013-02-13 08:47:00,76.5,71.2,30.00,ESE,121,2.0,13.0,84,0.00,,,0.00,meteohub,2013-02-13 13:47:00,
2013-02-13 08:52:00,76.6,71.4,30.00,SSW,203,6.0,12.0,84,0.00,,,0.00,meteohub,2013-02-13 13:52:00,
2013-02-13 08:57:00,76.8,71.2,30.00,SE,138,2.0,12.0,83,0.00,,,0.00,meteohub,2013-02-13 13:57:00,
2013-02-13 09:02:00,77.2,71.6,30.00,South,173,3.0,10.0,83,0.00,,,0.00,meteohub,2013-02-13 14:02:00,
2013-02-13 09:07:00,77.2,71.6,30.00,South,188,6.0,11.0,83,0.00,,,0.00,meteohub,2013-02-13 14:07:00,
2013-02-13 09:12:00,77.5,71.6,30.01,SSW,192,3.0,11.0,82,0.00,,,0.00,meteohub,2013-02-13 14:12:00,
2013-02-13 09:17:00,77.7,71.4,30.01,SSW,199,3.0,14.0,81,0.00,,,0.00,meteohub,2013-02-13 14:17:00,
2013-02-13 09:22:00,77.7,71.1,30.01,ESE,121,7.0,14.0,80,0.00,,,0.00,meteohub,2013-02-13 14:22:00,
2013-02-13 09:27:00,77.7,71.4,30.01,SSW,209,7.0,14.0,81,0.00,,,0.00,meteohub,2013-02-13 14:27:00,
2013-02-13 09:32:00,77.5,70.9,30.01,SSE,148,3.0,13.0,80,0.00,,,0.00,meteohub,2013-02-13 14:32:00,
2013-02-13 09:37:00,77.5,71.2,30.01,SW,214,2.0,13.0,81,0.00,,,0.00,meteohub,2013-02-13 14:37:00,
2013-02-13 09:42:00,78.3,71.6,30.01,South,186,3.0,12.0,80,0.00,,,0.00,meteohub,2013-02-13 14:42:00,
2013-02-13 09:47:00,79.0,72.0,30.01,SE,138,4.0,12.0,79,0.00,,,0.00,meteohub,2013-02-13 14:47:00,
2013-02-13 09:52:00,79.3,72.0,30.01,SSE,161,7.0,13.0,78,0.00,,,0.00,meteohub,2013-02-13 14:52:00,
2013-02-13 09:57:00,79.2,71.8,30.01,SE,134,1.0,13.0,78,0.00,,,0.00,meteohub,2013-02-13 14:57:00,
2013-02-13 10:02:00,79.0,71.6,30.01,SE,143,3.0,13.0,78,0.00,,,0.00,meteohub,2013-02-13 15:02:00,
2013-02-13 10:07:00,78.8,71.4,30.01,South,184,14.0,14.0,78,0.00,,,0.00,meteohub,2013-02-13 15:07:00,
2013-02-13 10:12:00,78.6,72.0,30.01,SSE,152,1.0,14.0,80,0.00,,,0.00,meteohub,2013-02-13 15:12:00,
2013-02-13 10:17:00,79.5,72.5,30.01,South,169,2.0,14.0,79,0.00,,,0.00,meteohub,2013-02-13 15:17:00,
2013-02-13 10:22:00,79.5,72.1,30.01,SSW,210,5.0,14.0,78,0.00,,,0.00,meteohub,2013-02-13 15:22:00,
2013-02-13 10:27:00,79.9,72.3,30.01,South,186,4.0,11.0,78,0.00,,,0.00,meteohub,2013-02-13 15:27:00,
2013-02-13 10:32:00,79.7,72.1,30.01,SSE,161,3.0,11.0,78,0.00,,,0.00,meteohub,2013-02-13 15:32:00,
2013-02-13 10:37:00,79.5,72.5,30.01,SE,135,5.0,12.0,79,0.00,,,0.00,meteohub,2013-02-13 15:37:00,
2013-02-13 10:42:00,79.7,72.1,30.01,SSE,148,4.0,12.0,78,0.00,,,0.00,meteohub,2013-02-13 15:42:00,
2013-02-13 10:47:00,79.3,72.0,30.01,ESE,109,5.0,12.0,78,0.00,,,0.00,meteohub,2013-02-13 15:47:00,
2013-02-13 10:52:00,79.3,72.3,30.01,SSE,152,8.0,11.0,79,0.00,,,0.00,meteohub,2013-02-13 15:52:00,
2013-02-13 10:57:00,79.3,72.3,30.01,South,191,3.0,13.0,79,0.00,,,0.00,meteohub,2013-02-13 15:57:00,
2013-02-13 11:02:00,79.5,72.1,30.00,South,188,14.0,14.0,78,0.00,,,0.00,meteohub,2013-02-13 16:02:00,
2013-02-13 11:07:00,79.3,72.3,30.01,SSE,158,4.0,14.0,79,0.00,,,0.00,meteohub,2013-02-13 16:07:00,
2013-02-13 11:12:00,79.0,72.0,30.00,SE,135,1.0,14.0,79,0.00,,,0.00,meteohub,2013-02-13 16:12:00,
2013-02-13 11:17:00,78.6,72.0,30.00,WSW,238,2.0,14.0,80,0.00,,,0.00,meteohub,2013-02-13 16:17:00,
2013-02-13 11:22:00,78.8,72.5,30.00,South,171,2.0,11.0,81,0.00,,,0.00,meteohub,2013-02-13 16:22:00,
2013-02-13 11:27:00,78.8,72.5,30.00,South,182,3.0,11.0,81,0.00,,,0.00,meteohub,2013-02-13 16:27:00,
2013-02-13 11:32:00,78.8,72.5,30.00,South,188,2.0,12.0,81,0.00,,,0.00,meteohub,2013-02-13 16:32:00,
2013-02-13 11:37:00,78.8,72.5,29.99,South,174,5.0,12.0,81,0.00,,,0.00,meteohub,2013-02-13 16:37:00,
2013-02-13 11:42:00,78.4,72.5,29.99,South,179,4.0,12.0,82,0.00,,,0.00,meteohub,2013-02-13 16:42:00,
2013-02-13 11:47:00,78.4,72.5,29.99,SW,223,6.0,11.0,82,0.00,,,0.00,meteohub,2013-02-13 16:47:00,
2013-02-13 11:52:00,78.6,73.0,29.99,SE,143,9.0,13.0,83,0.00,,,0.00,meteohub,2013-02-13 16:52:00,
2013-02-13 11:57:00,78.8,72.9,29.98,SSE,150,3.0,17.0,82,0.00,,,0.00,meteohub,2013-02-13 16:57:00,
2013-02-13 12:02:00,78.4,72.9,29.98,SSE,158,9.0,17.0,83,0.00,,,0.00,meteohub,2013-02-13 17:02:00,
2013-02-13 12:07:00,78.3,72.7,29.98,SSE,163,2.0,17.0,83,0.00,,,0.00,meteohub,2013-02-13 17:07:00,
2013-02-13 12:12:00,78.4,72.9,29.98,SE,145,11.0,15.0,83,0.00,,,0.00,meteohub,2013-02-13 17:12:00,
2013-02-13 12:17:00,79.0,73.0,29.98,SSE,167,4.0,15.0,82,0.00,,,0.00,meteohub,2013-02-13 17:17:00,
2013-02-13 12:22:00,78.8,72.5,29.97,SSW,213,3.0,13.0,81,0.00,,,0.00,meteohub,2013-02-13 17:22:00,
2013-02-13 12:27:00,79.2,72.9,29.97,SSW,211,2.0,13.0,81,0.00,,,0.00,meteohub,2013-02-13 17:27:00,
2013-02-13 12:32:00,79.2,72.5,29.97,South,171,8.0,17.0,80,0.00,,,0.00,meteohub,2013-02-13 17:32:00,
2013-02-13 12:37:00,79.3,73.0,29.97,South,189,5.0,17.0,81,0.00,,,0.00,meteohub,2013-02-13 17:37:00,
2013-02-13 12:42:00,79.5,72.9,29.96,South,180,6.0,17.0,80,0.00,,,0.00,meteohub,2013-02-13 17:42:00,
2013-02-13 12:47:00,79.7,72.7,29.96,South,175,9.0,15.0,79,0.00,,,0.00,meteohub,2013-02-13 17:47:00,
2013-02-13 12:52:00,79.9,72.3,29.96,SSW,205,7.0,15.0,78,0.00,,,0.00,meteohub,2013-02-13 17:52:00,
2013-02-13 12:57:00,79.5,72.5,29.96,SW,231,5.0,17.0,79,0.00,,,0.00,meteohub,2013-02-13 17:57:00,
2013-02-13 13:02:00,79.3,72.3,29.95,SSE,168,10.0,17.0,79,0.00,,,0.00,meteohub,2013-02-13 18:02:00,
2013-02-13 13:07:00,80.1,72.5,29.95,SE,146,3.0,17.0,78,0.00,,,0.00,meteohub,2013-02-13 18:07:00,
2013-02-13 13:12:00,80.8,72.9,29.94,ESE,115,5.0,15.0,77,0.00,,,0.00,meteohub,2013-02-13 18:12:00,
2013-02-13 13:17:00,80.6,72.7,29.94,SSE,152,6.0,15.0,77,0.00,,,0.00,meteohub,2013-02-13 18:17:00,
2013-02-13 13:22:00,81.0,72.7,29.94,SSE,161,10.0,15.0,76,0.00,,,0.00,meteohub,2013-02-13 18:22:00,
2013-02-13 13:27:00,81.1,72.5,29.94,SSE,166,4.0,18.0,75,0.00,,,0.00,meteohub,2013-02-13 18:27:00,
2013-02-13 13:32:00,81.0,72.3,29.93,SE,130,5.0,18.0,75,0.00,,,0.00,meteohub,2013-02-13 18:32:00,
2013-02-13 13:37:00,81.0,72.3,29.93,SE,146,1.0,18.0,75,0.00,,,0.00,meteohub,2013-02-13 18:37:00,
2013-02-13 13:42:00,80.8,72.5,29.93,ENE,61,5.0,15.0,76,0.00,,,0.00,meteohub,2013-02-13 18:42:00,
2013-02-13 13:47:00,80.8,72.1,29.92,SSW,196,11.0,15.0,75,0.00,,,0.00,meteohub,2013-02-13 18:47:00,
2013-02-13 13:52:00,81.0,72.7,29.92,SE,138,2.0,15.0,76,0.00,,,0.00,meteohub,2013-02-13 18:52:00,
2013-02-13 13:57:00,80.8,72.5,29.92,SSW,192,2.0,14.0,76,0.00,,,0.00,meteohub,2013-02-13 18:57:00,
2013-02-13 14:02:00,81.1,72.9,29.92,South,190,5.0,14.0,76,0.00,,,0.00,meteohub,2013-02-13 19:02:00,
2013-02-13 14:07:00,81.1,72.5,29.92,SSW,197,3.0,14.0,75,0.00,,,0.00,meteohub,2013-02-13 19:07:00,
2013-02-13 14:12:00,80.8,72.1,29.92,SSW,211,4.0,15.0,75,0.00,,,0.00,meteohub,2013-02-13 19:12:00,
2013-02-13 14:17:00,80.1,72.1,29.91,SSE,166,6.0,15.0,77,0.00,,,0.00,meteohub,2013-02-13 19:17:00,
2013-02-13 14:23:00,79.9,72.0,29.91,SE,142,4.0,17.0,77,0.00,,,0.00,meteohub,2013-02-13 19:23:00,
2013-02-13 14:28:00,79.5,71.6,29.91,SSE,150,4.0,17.0,77,0.00,,,0.00,meteohub,2013-02-13 19:28:00,
2013-02-13 14:33:00,80.2,72.3,29.91,SSW,197,9.0,17.0,77,0.00,,,0.00,meteohub,2013-02-13 19:33:00,
2013-02-13 14:38:00,80.2,72.0,29.91,SSW,213,7.0,14.0,76,0.00,,,0.00,meteohub,2013-02-13 19:38:00,
2013-02-13 14:43:00,79.5,72.1,29.91,South,190,7.0,16.0,78,0.00,,,0.00,meteohub,2013-02-13 19:43:00,
2013-02-13 14:48:00,79.5,72.1,29.90,South,183,0.0,16.0,78,0.00,,,0.00,meteohub,2013-02-13 19:48:00,
2013-02-13 14:53:00,80.2,72.3,29.90,SE,127,1.0,16.0,77,0.00,,,0.00,meteohub,2013-02-13 19:53:00,
2013-02-13 14:58:00,79.9,72.3,29.91,SSW,197,3.0,14.0,78,0.00,,,0.00,meteohub,2013-02-13 19:58:00,
2013-02-13 15:03:00,79.2,71.8,29.91,ESE,112,2.0,12.0,78,0.00,,,0.00,meteohub,2013-02-13 20:03:00,
2013-02-13 15:08:00,79.0,72.0,29.90,SSW,208,4.0,12.0,79,0.00,,,0.00,meteohub,2013-02-13 20:08:00,
2013-02-13 15:13:00,79.2,71.8,29.90,South,175,5.0,14.0,78,0.00,,,0.00,meteohub,2013-02-13 20:13:00,
2013-02-13 15:18:00,79.3,72.0,29.91,SSE,148,8.0,14.0,78,0.00,,,0.00,meteohub,2013-02-13 20:18:00,
2013-02-13 15:23:00,79.5,72.1,29.90,South,180,3.0,14.0,78,0.00,,,0.00,meteohub,2013-02-13 20:23:00,
2013-02-13 15:28:00,79.3,72.0,29.90,South,169,3.0,14.0,78,0.00,,,0.00,meteohub,2013-02-13 20:28:00,
2013-02-13 15:33:00,79.5,72.1,29.90,South,189,10.0,14.0,78,0.00,,,0.00,meteohub,2013-02-13 20:33:00,
2013-02-13 15:38:00,80.2,72.0,29.90,SE,128,8.0,14.0,76,0.00,,,0.00,meteohub,2013-02-13 20:38:00,
2013-02-13 15:43:00,80.1,71.8,29.90,SW,228,6.0,14.0,76,0.00,,,0.00,meteohub,2013-02-13 20:43:00,
2013-02-13 15:48:00,79.3,71.4,29.90,South,180,3.0,15.0,77,0.00,,,0.00,meteohub,2013-02-13 20:48:00,
2013-02-13 15:53:00,79.7,72.1,29.90,SSE,168,4.0,15.0,78,0.00,,,0.00,meteohub,2013-02-13 20:53:00,
2013-02-13 15:58:00,79.9,72.3,29.90,South,177,5.0,15.0,78,0.00,,,0.00,meteohub,2013-02-13 20:58:00,
2013-02-13 16:03:00,79.5,72.1,29.90,SSW,196,3.0,12.0,78,0.00,,,0.00,meteohub,2013-02-13 21:03:00,
2013-02-13 16:08:00,79.7,72.1,29.90,South,189,3.0,13.0,78,0.00,,,0.00,meteohub,2013-02-13 21:08:00,
2013-02-13 16:13:00,79.7,72.1,29.90,SSW,199,7.0,13.0,78,0.00,,,0.00,meteohub,2013-02-13 21:13:00,
2013-02-13 16:18:00,79.5,72.1,29.89,SSE,167,4.0,13.0,78,0.00,,,0.00,meteohub,2013-02-13 21:18:00,
2013-02-13 16:23:00,79.5,72.1,29.90,SW,227,9.0,13.0,78,0.00,,,0.00,meteohub,2013-02-13 21:23:00,
2013-02-13 16:29:00,79.3,72.0,29.90,SSE,156,6.0,13.0,78,0.00,,,0.00,meteohub,2013-02-13 21:29:00,
2013-02-13 16:34:00,79.3,72.0,29.90,SSW,193,7.0,13.0,78,0.00,,,0.00,meteohub,2013-02-13 21:34:00,
2013-02-13 16:39:00,79.3,72.0,29.90,South,180,3.0,14.0,78,0.00,,,0.00,meteohub,2013-02-13 21:39:00,
2013-02-13 16:44:00,79.3,72.0,29.90,SE,134,1.0,14.0,78,0.00,,,0.00,meteohub,2013-02-13 21:44:00,
2013-02-13 16:49:00,79.3,72.0,29.90,South,191,3.0,14.0,78,0.00,,,0.00,meteohub,2013-02-13 21:49:00,
2013-02-13 16:54:00,79.0,71.6,29.90,SSW,208,5.0,12.0,78,0.00,,,0.00,meteohub,2013-02-13 21:54:00,
2013-02-13 16:59:00,78.6,71.6,29.90,South,180,2.0,12.0,79,0.00,,,0.00,meteohub,2013-02-13 21:59:00,
2013-02-13 17:04:00,78.4,71.4,29.90,SSE,167,5.0,12.0,79,0.00,,,0.00,meteohub,2013-02-13 22:04:00,
2013-02-13 17:09:00,78.3,71.6,29.90,South,189,2.0,12.0,80,0.00,,,0.00,meteohub,2013-02-13 22:09:00,
2013-02-13 17:14:00,78.4,71.8,29.90,South,184,2.0,12.0,80,0.00,,,0.00,meteohub,2013-02-13 22:14:00,
2013-02-13 17:19:00,78.3,71.6,29.90,SSE,154,4.0,12.0,80,0.00,,,0.00,meteohub,2013-02-13 22:19:00,
2013-02-13 17:24:00,78.1,71.4,29.90,SSE,153,5.0,12.0,80,0.00,,,0.00,meteohub,2013-02-13 22:24:00,
2013-02-13 17:29:00,77.9,71.6,29.90,SSE,154,4.0,12.0,81,0.00,,,0.00,meteohub,2013-02-13 22:29:00,
2013-02-13 17:34:00,77.7,71.4,29.90,South,189,7.0,12.0,81,0.00,,,0.00,meteohub,2013-02-13 22:34:00,
2013-02-13 17:39:00,77.7,71.4,29.90,South,177,5.0,12.0,81,0.00,,,0.00,meteohub,2013-02-13 22:39:00,
2013-02-13 17:44:00,77.7,71.4,29.90,SSW,210,7.0,11.0,81,0.00,,,0.00,meteohub,2013-02-13 22:44:00,
2013-02-13 17:49:00,77.7,71.4,29.91,SSE,155,2.0,11.0,81,0.00,,,0.00,meteohub,2013-02-13 22:49:00,
2013-02-13 17:54:00,77.5,71.6,29.91,SSW,205,0.0,11.0,82,0.00,,,0.00,meteohub,2013-02-13 22:54:00,
2013-02-13 17:59:00,77.5,71.6,29.91,SSW,205,2.0,11.0,82,0.00,,,0.00,meteohub,2013-02-13 22:59:00,
2013-02-13 18:04:00,77.4,71.4,29.91,SSW,206,3.0,11.0,82,0.00,,,0.00,meteohub,2013-02-13 23:04:00,
2013-02-13 18:09:00,77.2,71.6,29.91,South,178,1.0,10.0,83,0.00,,,0.00,meteohub,2013-02-13 23:09:00,
2013-02-13 18:14:00,77.0,71.4,29.91,SSE,153,0.0,9.0,83,0.00,,,0.00,meteohub,2013-02-13 23:14:00,
2013-02-13 18:19:00,77.0,71.4,29.91,South,178,1.0,9.0,83,0.00,,,0.00,meteohub,2013-02-13 23:19:00,
2013-02-13 18:24:00,76.8,71.2,29.91,South,180,4.0,9.0,83,0.00,,,0.00,meteohub,2013-02-13 23:24:00,
2013-02-13 18:29:00,76.6,71.1,29.91,SSE,167,0.0,8.0,83,0.00,,,0.00,meteohub,2013-02-13 23:29:00,
2013-02-13 18:34:00,76.6,71.4,29.91,SSW,199,2.0,6.0,84,0.00,,,0.00,meteohub,2013-02-13 23:34:00,
2013-02-13 18:39:00,76.5,71.2,29.92,SSE,161,3.0,6.0,84,0.00,,,0.00,meteohub,2013-02-13 23:39:00,
2013-02-13 18:44:00,76.5,71.2,29.92,SW,215,1.0,6.0,84,0.00,,,0.00,meteohub,2013-02-13 23:44:00,
2013-02-13 18:49:00,76.5,70.9,29.92,South,180,1.0,7.0,83,0.00,,,0.00,meteohub,2013-02-13 23:49:00,
2013-02-13 18:54:00,76.5,71.2,29.92,South,171,3.0,7.0,84,0.00,,,0.00,meteohub,2013-02-13 23:54:00,
2013-02-13 18:59:00,76.3,71.1,29.92,SSW,201,0.0,7.0,84,0.00,,,0.00,meteohub,2013-02-13 23:59:00,
2013-02-13 19:04:00,76.3,71.1,29.92,SSE,154,3.0,6.0,84,0.00,,,0.00,meteohub,2013-02-14 00:04:00,
2013-02-13 19:09:00,75.9,70.7,29.92,South,190,0.0,6.0,84,0.00,,,0.00,meteohub,2013-02-14 00:09:00,
2013-02-13 19:15:00,75.7,70.5,29.92,SSW,203,1.0,4.0,84,0.00,,,0.00,meteohub,2013-02-14 00:15:00,
2013-02-13 19:20:00,75.9,69.6,29.92,SW,225,2.0,4.0,81,0.00,,,0.00,meteohub,2013-02-14 00:20:00,
2013-02-13 19:25:00,76.3,68.9,29.93,SW,215,0.0,5.0,78,0.00,,,0.00,meteohub,2013-02-14 00:25:00,
2013-02-13 19:30:00,76.6,68.9,29.92,SSW,210,0.0,6.0,77,0.00,,,0.00,meteohub,2013-02-14 00:30:00,
2013-02-13 19:35:00,76.8,68.7,29.92,West,263,0.0,6.0,76,0.00,,,0.00,meteohub,2013-02-14 00:35:00,
2013-02-13 19:40:00,77.0,68.9,29.93,SW,219,1.0,7.0,76,0.00,,,0.00,meteohub,2013-02-14 00:40:00,
2013-02-13 19:45:00,77.2,69.1,29.92,SSW,199,3.0,7.0,76,0.00,,,0.00,meteohub,2013-02-14 00:45:00,
2013-02-13 19:50:00,77.2,69.1,29.92,SSW,202,1.0,7.0,76,0.00,,,0.00,meteohub,2013-02-14 00:50:00,
2013-02-13 19:55:00,77.0,68.9,29.93,SSW,211,3.0,6.0,76,0.00,,,0.00,meteohub,2013-02-14 00:55:00,
2013-02-13 20:00:00,77.0,68.9,29.93,SSW,211,2.0,7.0,76,0.00,,,0.00,meteohub,2013-02-14 01:00:00,
2013-02-13 20:05:00,76.8,69.1,29.93,SW,215,2.0,7.0,77,0.00,,,0.00,meteohub,2013-02-14 01:05:00,
2013-02-13 20:10:00,76.8,69.1,29.93,South,183,0.0,7.0,77,0.00,,,0.00,meteohub,2013-02-14 01:10:00,
2013-02-13 20:15:00,76.6,68.9,29.94,SW,226,0.0,7.0,77,0.00,,,0.00,meteohub,2013-02-14 01:15:00,
2013-02-13 20:20:00,76.6,69.3,29.94,SSW,200,1.0,6.0,78,0.00,,,0.00,meteohub,2013-02-14 01:20:00,
2013-02-13 20:25:00,76.5,69.1,29.94,SW,218,0.0,6.0,78,0.00,,,0.00,meteohub,2013-02-14 01:25:00,
2013-02-13 20:30:00,76.5,69.1,29.94,SW,227,2.0,6.0,78,0.00,,,0.00,meteohub,2013-02-14 01:30:00,
2013-02-13 20:35:00,76.3,69.3,29.94,SW,224,1.0,7.0,79,0.00,,,0.00,meteohub,2013-02-14 01:35:00,
2013-02-13 20:40:00,76.1,69.1,29.94,WSW,243,0.0,7.0,79,0.00,,,0.00,meteohub,2013-02-14 01:40:00,
2013-02-13 20:45:00,75.9,68.9,29.95,SSW,207,4.0,7.0,79,0.00,,,0.00,meteohub,2013-02-14 01:45:00,
2013-02-13 20:50:00,75.7,68.7,29.95,WSW,242,0.0,7.0,79,0.00,,,0.00,meteohub,2013-02-14 01:50:00,
2013-02-13 20:55:00,75.7,69.1,29.95,SW,215,3.0,7.0,80,0.00,,,0.00,meteohub,2013-02-14 01:55:00,
2013-02-13 21:00:00,75.6,68.9,29.95,South,190,3.0,5.0,80,0.00,,,0.00,meteohub,2013-02-14 02:00:00,
2013-02-13 21:05:00,75.6,68.9,29.95,SSW,208,2.0,6.0,80,0.00,,,0.00,meteohub,2013-02-14 02:05:00,
2013-02-13 21:10:00,75.6,69.3,29.95,SW,217,0.0,6.0,81,0.00,,,0.00,meteohub,2013-02-14 02:10:00,
2013-02-13 21:15:00,75.4,69.1,29.95,SW,222,1.0,6.0,81,0.00,,,0.00,meteohub,2013-02-14 02:15:00,
2013-02-13 21:20:00,75.2,68.9,29.95,SSW,213,1.0,5.0,81,0.00,,,0.00,meteohub,2013-02-14 02:20:00,
2013-02-13 21:25:00,75.0,69.1,29.95,SW,223,0.0,6.0,82,0.00,,,0.00,meteohub,2013-02-14 02:25:00,
2013-02-13 21:30:00,75.0,69.1,29.96,South,180,3.0,6.0,82,0.00,,,0.00,meteohub,2013-02-14 02:30:00,
2013-02-13 21:35:00,74.8,69.3,29.96,West,281,0.0,6.0,83,0.00,,,0.00,meteohub,2013-02-14 02:35:00,
2013-02-13 21:40:00,74.8,69.3,29.96,SW,223,0.0,6.0,83,0.00,,,0.00,meteohub,2013-02-14 02:40:00,
2013-02-13 21:45:00,74.8,69.3,29.96,SSW,208,0.0,6.0,83,0.00,,,0.00,meteohub,2013-02-14 02:45:00,
2013-02-13 21:50:00,74.7,69.4,29.96,SW,223,2.0,6.0,84,0.00,,,0.00,meteohub,2013-02-14 02:50:00,
2013-02-13 21:55:00,74.7,69.4,29.96,SSW,212,1.0,5.0,84,0.00,,,0.00,meteohub,2013-02-14 02:55:00,
2013-02-13 22:00:00,74.5,69.3,29.96,SSW,207,0.0,5.0,84,0.00,,,0.00,meteohub,2013-02-14 03:00:00,
2013-02-13 22:05:00,74.3,69.4,29.97,SSW,200,0.0,5.0,85,0.00,,,0.00,meteohub,2013-02-14 03:05:00,
2013-02-13 22:10:00,74.1,69.3,29.97,SSW,207,0.0,2.0,85,0.00,,,0.00,meteohub,2013-02-14 03:10:00,
2013-02-13 22:15:00,73.9,69.1,29.97,WSW,242,0.0,3.0,85,0.00,,,0.00,meteohub,2013-02-14 03:15:00,
2013-02-13 22:20:00,73.9,69.4,29.97,SW,229,0.0,5.0,86,0.00,,,0.00,meteohub,2013-02-14 03:20:00,
2013-02-13 22:25:00,73.8,69.3,29.97,SW,229,0.0,5.0,86,0.00,,,0.00,meteohub,2013-02-14 03:25:00,
2013-02-13 22:30:00,73.8,69.3,29.97,SSW,199,0.0,5.0,86,0.00,,,0.00,meteohub,2013-02-14 03:30:00,
2013-02-13 22:35:00,73.6,69.4,29.97,WSW,241,1.0,4.0,87,0.00,,,0.00,meteohub,2013-02-14 03:35:00,
2013-02-13 22:40:00,73.6,69.4,29.97,SSW,211,0.0,5.0,87,0.00,,,0.00,meteohub,2013-02-14 03:40:00,
2013-02-13 22:45:00,73.4,69.3,29.97,WSW,248,1.0,5.0,87,0.00,,,0.00,meteohub,2013-02-14 03:45:00,
2013-02-13 22:51:00,73.4,69.6,29.97,WSW,237,1.0,5.0,88,0.00,,,0.00,meteohub,2013-02-14 03:51:00,
2013-02-13 22:56:00,73.2,69.4,29.97,South,184,1.0,4.0,88,0.00,,,0.00,meteohub,2013-02-14 03:56:00,
2013-02-13 23:01:00,73.2,69.4,29.97,SW,227,0.0,4.0,88,0.00,,,0.00,meteohub,2013-02-14 04:01:00,
2013-02-13 23:06:00,73.0,69.6,29.97,SSW,210,1.0,3.0,89,0.00,,,0.00,meteohub,2013-02-14 04:06:00,
2013-02-13 23:11:00,73.0,69.6,29.97,SSW,198,0.0,3.0,89,0.00,,,0.00,meteohub,2013-02-14 04:11:00,
2013-02-13 23:16:00,72.9,69.4,29.97,SSW,211,0.0,3.0,89,0.00,,,0.00,meteohub,2013-02-14 04:16:00,
2013-02-13 23:21:00,72.7,69.3,29.97,SSW,210,0.0,3.0,89,0.00,,,0.00,meteohub,2013-02-14 04:21:00,
2013-02-13 23:26:00,72.7,69.6,29.97,South,182,1.0,5.0,90,0.00,,,0.00,meteohub,2013-02-14 04:26:00,
2013-02-13 23:31:00,72.5,69.4,29.96,South,188,1.0,5.0,90,0.00,,,0.00,meteohub,2013-02-14 04:31:00,
2013-02-13 23:36:00,72.3,69.3,29.96,SSW,211,0.0,5.0,90,0.00,,,0.00,meteohub,2013-02-14 04:36:00,
2013-02-13 23:41:00,72.3,69.6,29.97,SSW,200,0.0,3.0,91,0.00,,,0.00,meteohub,2013-02-14 04:41:00,
2013-02-13 23:46:00,72.3,69.6,29.97,South,177,1.0,3.0,91,0.00,,,0.00,meteohub,2013-02-14 04:46:00,
2013-02-13 23:51:00,72.3,69.6,29.97,SSW,200,1.0,4.0,91,0.00,,,0.00,meteohub,2013-02-14 04:51:00,
2013-02-13 23:56:00,72.1,69.4,29.97,SSW,198,0.0,4.0,91,0.00,,,0.00,meteohub,2013-02-14 04:56:00,